337  
ASUS44 KCRP 021310  
RWRCRP  
 
SOUTH TEXAS REGIONAL WEATHER ROUNDUP  
NATIONAL WEATHER SERVICE CORPUS CHRISTI TX  
700 AM CST FRI DEC 02 2022  
 
 
TXZ229>244-021400-   
..CORPUS CHRISTI AREA OBSERVATIONS
 
 
 
CITY SKY/WX TMP DP RH WIND PRES REMARKS
 
CORPUS CHRISTI FOG 58 58 100 CALM 30.13R VSB 1/2  
NAS CORPUS CHR FOG 60 60 100 SW5 30.12R VSB 1/4  
ROCKPORT CLOUDY 61 61 100 CALM 30.12R  
KINGSVILLE NAS FOG 58 58 100 NW3 30.13S VSB 1/2  
ALICE CLOUDY 56 56 100 N3 30.13R FOG  

 
   
..VICTORIA AREA OBSERVATIONS
 
 
 
CITY SKY/WX TMP DP RH WIND PRES REMARKS
 
PORT LAVACA DRIZZLE 69 67 93 SE3 30.12R  
VICTORIA CLOUDY 62 62 100 CALM 30.12R  
BEEVILLE N/A 57 55 95 CALM 30.12R VSB 1/2  
PLEASANTON CLOUDY 54 53 97 CALM 30.14S FOG  
SAN ANTONIO LGT RAIN 53 53 100 CALM 30.13S VSB 3/4  

 
   
..LAREDO AREA OBSERVATIONS
 
 
 
CITY SKY/WX TMP DP RH WIND PRES REMARKS
 
LAREDO CLOUDY 52 51 97 CALM 30.14S FOG  
COTULLA CLOUDY 53 51 93 CALM 30.13F FOG  
DEL RIO CLOUDY 52 49 89 SE5 30.13R  
MCALLEN CLOUDY 56 55 97 W3 30.13S FOG  
HEBBRONVILLE CLOUDY 53 53 98 CALM 30.13S FOG  

 
   
..OTHER TEXAS OBSERVATIONS
 
 
 
CITY SKY/WX TMP DP RH WIND PRES REMARKS
 
BROWNSVILLE FOG 58 58 100 NW3 30.13R VSB 3/4  
HOUSTON CLOUDY 58 53 84 SE7 30.16S  
COL. STATION LGT RAIN 54 50 86 CALM 30.13F FOG  
AUSTIN DRIZZLE 52 52 100 E3 30.13R FOG  
TEMPLE CLOUDY 51 51 100 S6 N/A  
WACO CLOUDY 50 50 100 S8 30.12S  
FORT WORTH CLOUDY 51 48 89 S9 30.08S  
WICHITA FALLS CLOUDY 54 51 90 S20 29.99S  
LUBBOCK CLOUDY 43 37 79 SW14 29.96F  
EL PASO PTCLDY 47 30 51 E8 30.08S  

 
   
..MARINE OBSERVATIONS
 
 
 
STATION/POSITION TIME SKY/WX TEMP WIND PRES VSBY WAVE SWELL
 
AIR SEA DIR/SP/G HT/PER HT/PER  
(UTC) (F) (DEG/KT/KT) (MB) (MI) (FT/S) (FT/S)  
PORT ARANSAS 1300 61 200/ 3/ 3 N/A  
ARANSAS PASS 1230 62 200/ 4/ 5 1019.0R  
BUOY 6 SE PORT A NOT AVBL  
BUOY 90 E PORT A 1250 76 1020.5R 7/ 7 3/ 7  
BUOY 45 SE BAFFI 1250 68 270/ 4/ 8 1020.2R  
BUOY 200 E PT IS 1250 78 140/ 12/ 14 1020.7S 6/ 8 5/ 8  
BUOY 15 E GALVES NOT AVBL  

 
 
 
CLICK HERE TO GO TO PREVIOUS BULLETINS.

The Nexlab TX Page Main Text Page